Location: Pedholt
(56.0260°N, 10.2097°E)
Time: 22:14:41
(UTC+00:00)

Altair - All Passes

Search period start: 28 July 2021 00:00
Search period end: 07 August 2021 00:00
Orbit: 1501 x 1682 km, 47.2° (Epoch: 28 July)

Date Brightness Start Highest point End Pass type
(mag) Time Alt. Az. Time Alt. Az. Time Alt. Az.
28 Jul - 01:38:55 10° SSW 01:46:12 27° SE 01:53:22 10° E visible
28 Jul - 03:40:35 10° SW 03:49:13 46° SSE 03:57:46 10° E daylight
28 Jul - 05:44:05 10° W 05:52:44 48° S 06:01:24 10° ESE daylight
28 Jul - 07:48:18 10° W 07:55:54 30° SSW 08:03:33 10° SSE daylight
28 Jul - 09:56:34 10° WSW 09:58:02 10° SW 09:59:29 10° SW daylight
29 Jul - 01:14:06 10° SSW 01:21:11 25° SE 01:28:10 10° E visible
29 Jul - 03:15:32 10° SW 03:24:09 45° SSE 03:32:39 10° E daylight
29 Jul - 05:18:58 10° WSW 05:27:40 49° S 05:36:20 10° ESE daylight
29 Jul - 07:23:08 10° W 07:30:52 32° SSW 07:38:39 10° SSE daylight
29 Jul - 09:30:15 10° WSW 09:33:05 12° SW 09:35:56 10° SW daylight
30 Jul - 00:49:18 10° S 00:56:10 24° SE 01:02:56 10° E visible
30 Jul - 02:50:30 10° SW 02:59:04 44° SSE 03:07:32 10° E daylight
30 Jul - 04:53:51 10° WSW 05:02:35 49° S 05:11:15 10° ESE daylight
30 Jul - 06:57:59 10° W 07:05:50 33° SSW 07:13:44 10° SSE daylight
30 Jul - 09:04:27 10° WSW 09:08:08 13° SW 09:11:50 10° SSW daylight
31 Jul - 00:24:32 10° S 00:31:10 22° SE 00:37:42 10° E visible
31 Jul - 02:25:27 10° SW 02:34:00 42° SSE 02:42:25 10° E visible
31 Jul - 04:28:44 10° WSW 04:37:30 50° S 04:46:11 10° ESE daylight
31 Jul - 06:32:49 10° W 06:40:48 35° SSW 06:48:47 10° SSE daylight
31 Jul - 08:38:50 10° W 08:43:10 14° SW 08:47:31 10° SSW daylight
31 Jul - 23:59:48 10° S 00:06:10 21° SE 00:12:26 10° E visible
01 Aug - 02:00:26 10° SW 02:08:56 41° SSE 02:17:17 10° E visible
01 Aug - 04:03:38 10° WSW 04:12:25 50° S 04:21:06 10° ESE daylight
01 Aug - 06:07:39 10° W 06:15:45 36° SSW 06:23:50 10° SE daylight
01 Aug - 08:13:20 10° W 08:18:12 16° SW 08:23:06 10° SSW daylight
01 Aug - 23:35:06 10° S 23:41:10 19° SE 23:47:09 10° E visible
02 Aug - 01:35:24 10° SW 01:43:52 40° SSE 01:52:10 10° E visible
02 Aug - 03:38:31 10° WSW 03:47:19 50° S 03:56:01 10° ESE daylight
02 Aug - 05:42:30 10° W 05:50:42 38° SSW 05:58:52 10° SE daylight
02 Aug - 07:47:55 10° W 07:53:14 17° SW 07:58:34 10° S daylight
02 Aug - 23:10:28 10° S 23:16:11 18° SE 23:21:49 10° E visible
03 Aug - 01:10:24 10° SW 01:18:48 39° SSE 01:27:02 10° E visible
03 Aug - 03:13:24 10° WSW 03:22:14 50° S 03:30:56 10° ESE daylight
03 Aug - 05:17:21 10° W 05:25:39 39° SSW 05:33:54 10° SE daylight
03 Aug - 07:22:33 10° W 07:28:16 18° SW 07:33:59 10° S daylight
03 Aug - 22:45:52 10° SSE 22:51:12 17° SE 22:56:27 10° E visible
04 Aug - 00:45:24 10° SW 00:53:45 37° SSE 01:01:55 10° E visible
04 Aug - 02:48:17 10° WSW 02:57:08 50° S 03:05:51 10° ESE daylight
04 Aug - 04:52:12 10° W 05:00:36 41° SSW 05:08:54 10° SE daylight
04 Aug - 06:57:13 10° W 07:03:17 20° SW 07:09:20 10° S daylight
04 Aug - 22:21:22 10° SSE 22:26:13 15° SE 22:31:01 10° E visible
05 Aug - 00:20:25 10° SW 00:28:41 36° SSE 00:36:47 10° E visible
05 Aug - 02:23:11 10° WSW 02:32:03 50° S 02:40:45 10° ESE visible
05 Aug - 04:27:03 10° W 04:35:32 42° SSW 04:43:54 10° SE daylight
05 Aug - 06:31:55 10° W 06:38:17 21° SW 06:44:39 10° S daylight
05 Aug - 21:56:57 10° SSE 22:01:15 14° SE 22:05:29 10° ESE visible
05 Aug - 23:55:27 10° SSW 00:03:38 34° SSE 00:11:38 10° E visible
06 Aug - 01:58:04 10° WSW 02:06:57 50° S 02:15:39 10° ESE visible
06 Aug - 04:01:55 10° W 04:10:28 43° SSW 04:18:54 10° SE daylight
06 Aug - 06:06:39 10° W 06:13:17 23° SW 06:19:56 10° S daylight
06 Aug - 21:32:41 10° SSE 21:36:17 13° SE 21:39:50 10° ESE visible
06 Aug - 23:30:29 10° SSW 23:38:35 33° SSE 23:46:30 10° E visible
